GFSCGP_500_temp_120.txt.gz
Temp
-6 -6 -6 -6 -6 -6 -6 -6 -6 -6 -6 -6 -6 -6 -6 -6 -6 -6 -7 -7 -7 -7 -8 -8 -9 -8 -8 -8 -9 -9 -9 -9 -9 -8 -9 -9 -9 -9 -9 -9 -9 -9 -9 -8
-6 -6 -6 -6 -6 -6 -6 -6 -6 -6 -6 -6 -6 -7 -7 -7 -7 -6 -7 -7 -7 -7 -7 -8 -9 -8 -8 -9 -9 -9 -9 -9 -9 -8 -8 -9 -9 -9 -9 -9 -9 -9 -9 -9
-6 -6 -6 -6 -6 -6 -6 -6 -6 -7 -7 -7 -7 -7 -7 -7 -7 -7 -7 -7 -6 -7 -8 -8 -8 -9 -9 -9 -9 -9 -9 -9 -8 -8 -9 -8 -9 -9 -9 -9 -9 -9 -9 -9
-6 -6 -6 -6 -6 -6 -7 -6 -6 -7 -7 -9 -7 -8 -7 -7 -7 -7 -7 -7 -7 -7 -8 -8 -8 -9 -9 -9 -9 -9 -9 -9 -8 -8 -9 -8 -8 -8 -7 -8 -9 -9 -9 -9
-6 -6 -6 -6 -6 -6 -6 -7 -7 -7 -7 -7 -9 -7 -9 -8 -7 -7 -7 -7 -7 -8 -8 -9 -9 -10 -9 -9 -9 -10 -9 -9 -9 -9 -9 -9 -9 -8 -8 -8 -9 -9 -9 -9
-6 -7 -7 -6 -6 -7 -7 -7 -7 -7 -7 -8 -9 -7 -9 -9 -8 -7 -7 -8 -8 -8 -9 -9 -10 -10 -10 -10 -10 -10 -10 -10 -9 -9 -9 -9 -9 -9 -9 -8 -9 -9 -9 -9
-7 -7 -7 -7 -7 -7 -8 -8 -9 -9 -9 -9 -8 -8 -8 -8 -8 -8 -8 -8 -8 -8 -8 -8 -9 -9 -10 -10 -10 -10 -10 -10 -9 -9 -9 -9 -9 -9 -9 -9 -9 -9 -9 -9
-8 -7 -7 -7 -7 -7 -7 -8 -8 -8 -10 -10 -9 -7 -9 -8 -8 -8 -9 -9 -9 -9 -9 -9 -8 -9 -9 -10 -10 -10 -10 -10 -10 -10 -10 -9 -9 -9 -10 -10 -9 -9 -9 -9
-8 -8 -8 -8 -8 -8 -8 -8 -8 -8 -8 -7 -9 -9 -8 -8 -8 -9 -9 -9 -10 -10 -10 -10 -9 -9 -9 -10 -10 -10 -10 -10 -10 -10 -9 -10 -9 -9 -9 -9 -10 -9 -9 -9
-7 -8 -7 -7 -8 -8 -8 -8 -8 -9 -8 -9 -10 -9 -10 -8 -9 -9 -10 -10 -10 -10 -10 -10 -9 -9 -9 -10 -10 -10 -10 -10 -10 -10 -10 -10 -9 -10 -9 -9 -9 -9 -9 -9
-7 -7 -8 -7 -7 -7 -7 -7 -7 -8 -8 -8 -9 -11 -9 -9 -9 -10 -10 -10 -10 -10 -10 -10 -10 -9 -10 -10 -10 -10 -10 -10 -10 -11 -10 -9 -9 -9 -9 -9 -9 -9 -9 -9
-7 -7 -7 -8 -7 -7 -7 -8 -8 -8 -9 -8 -8 -7 -8 -9 -9 -9 -9 -9 -9 -9 -10 -10 -10 -10 -10 -10 -10 -10 -10 -10 -10 -10 -10 -10 -10 -9 -9 -9 -9 -9 -9 -9
-7 -7 -7 -8 -7 -6 -7 -7 -8 -8 -8 -8 -8 -8 -10 -9 -8 -8 -9 -9 -9 -10 -10 -10 -10 -10 -10 -10 -10 -10 -10 -10 -10 -10 -10 -10 -10 -10 -10 -10 -10 -9 -9 -9
-8 -8 -8 -8 -9 -8 -8 -8 -8 -8 -8 -8 -8 -8 -9 -9 -9 -9 -9 -9 -10 -10 -10 -11 -11 -11 -11 -11 -11 -10 -11 -10 -10 -10 -10 -10 -10 -10 -10 -10 -10 -10 -9 -9
-8 -8 -8 -8 -9 -8 -8 -8 -9 -9 -9 -9 -9 -9 -9 -9 -9 -10 -10 -10 -10 -11 -11 -11 -11 -11 -11 -11 -11 -11 -11 -11 -10 -10 -9 -9 -10 -10 -10 -10 -10 -10 -10 -10
-8 -9 -8 -8 -9 -9 -9 -9 -9 -9 -10 -9 -9 -10 -9 -10 -10 -10 -10 -10 -11 -11 -11 -11 -11 -11 -12 -11 -11 -11 -12 -11 -11 -11 -10 -9 -10 -10 -10 -11 -10 -10 -10 -9
-9 -9 -9 -9 -9 -9 -9 -9 -9 -10 -10 -10 -10 -11 -10 -10 -10 -11 -11 -11 -11 -12 -12 -12 -12 -12 -11 -11 -11 -11 -12 -12 -12 -12 -11 -10 -10 -10 -10 -10 -10 -10 -10 -10
-9 -9 -9 -9 -9 -9 -9 -9 -10 -10 -10 -11 -11 -11 -11 -11 -11 -12 -11 -11 -11 -12 -12 -12 -12 -12 -11 -11 -11 -12 -13 -12 -12 -12 -12 -11 -10 -10 -10 -10 -10 -9 -9 -10
-10 -10 -10 -10 -10 -10 -10 -10 -10 -10 -11 -11 -11 -12 -12 -12 -13 -13 -12 -12 -12 -12 -12 -12 -12 -12 -11 -12 -12 -12 -12 -12 -12 -12 -12 -11 -10 -10 -10 -10 -9 -9 -9 -9
-10 -10 -10 -11 -10 -10 -11 -10 -10 -11 -11 -11 -12 -12 -12 -13 -13 -13 -13 -13 -12 -13 -12 -12 -12 -12 -11 -12 -12 -12 -11 -12 -11 -12 -12 -11 -11 -10 -10 -10 -9 -9 -9 -9
-10 -11 -11 -11 -11 -11 -11 -11 -11 -12 -13 -12 -12 -13 -13 -13 -13 -13 -13 -13 -13 -13 -12 -12 -12 -12 -12 -12 -12 -12 -11 -11 -11 -11 -12 -12 -11 -11 -11 -10 -10 -9 -9 -9
-12 -12 -12 -12 -12 -12 -11 -12 -12 -12 -12 -13 -13 -13 -13 -14 -14 -13 -13 -13 -13 -12 -13 -13 -12 -12 -12 -12 -11 -11 -11 -11 -11 -12 -12 -12 -12 -12 -11 -11 -9 -9 -9 -9
-13 -13 -13 -13 -15 -13 -13 -13 -13 -13 -13 -14 -14 -14 -14 -14 -14 -14 -13 -13 -13 -13 -13 -13 -12 -12 -12 -12 -11 -11 -11 -12 -12 -12 -12 -12 -12 -12 -11 -10 -10 -11 -11 -10
-13 -14 -13 -14 -14 -14 -14 -14 -14 -14 -14 -15 -14 -15 -15 -14 -15 -14 -14 -13 -13 -13 -13 -13 -13 -12 -12 -12 -12 -11 -12 -12 -12 -11 -12 -12 -12 -12 -11 -10 -10 -10 -10 -10
-15 -14 -15 -14 -14 -14 -14 -15 -15 -15 -15 -15 -15 -14 -14 -14 -15 -14 -14 -14 -13 -13 -13 -13 -13 -13 -12 -12 -12 -11 -11 -11 -12 -11 -12 -12 -12 -12 -12 -11 -11 -11 -11 -10
-16 -16 -15 -15 -15 -15 -15 -16 -15 -15 -15 -15 -15 -15 -14 -15 -15 -15 -14 -14 -14 -14 -13 -14 -13 -13 -13 -12 -12 -12 -12 -12 -12 -12 -12 -12 -12 -12 -11 -11 -11 -11 -11 -11

GFSCGP_500_temp_123.txt.gz
Temp
-6 -6 -6 -8 -6 -6 -6 -6 -6 -6 -5 -6 -5 -6 -6 -6 -6 -6 -6 -7 -7 -7 -7 -8 -8 -9 -8 -8 -8 -8 -9 -9 -9 -8 -8 -9 -9 -9 -9 -9 -9 -9 -9 -9
-6 -6 -6 -6 -6 -6 -5 -6 -8 -6 -6 -6 -8 -8 -6 -6 -6 -6 -6 -6 -6 -7 -7 -7 -8 -8 -9 -8 -8 -9 -9 -9 -9 -8 -8 -9 -9 -9 -9 -9 -9 -9 -9 -9
-6 -6 -6 -6 -6 -6 -6 -6 -7 -7 -6 -6 -7 -8 -7 -6 -7 -6 -6 -6 -7 -7 -7 -8 -8 -8 -9 -9 -9 -9 -9 -9 -9 -8 -8 -9 -9 -9 -9 -9 -9 -9 -9 -9
-6 -6 -6 -6 -6 -6 -8 -6 -6 -6 -7 -7 -7 -7 -7 -8 -8 -7 -6 -6 -6 -7 -7 -8 -8 -8 -9 -9 -9 -9 -9 -8 -9 -9 -8 -9 -9 -9 -8 -9 -8 -9 -9 -9
-7 -6 -6 -6 -6 -6 -6 -6 -6 -6 -7 -8 -8 -8 -8 -8 -9 -9 -8 -7 -7 -7 -7 -8 -8 -9 -9 -9 -9 -9 -9 -9 -9 -9 -9 -9 -9 -9 -9 -8 -9 -8 -9 -9
-6 -6 -6 -6 -6 -6 -6 -6 -6 -7 -8 -8 -7 -8 -7 -8 -9 -9 -8 -7 -7 -7 -7 -8 -8 -9 -10 -10 -10 -10 -10 -10 -9 -9 -9 -9 -9 -9 -9 -9 -9 -10 -9 -8
-7 -6 -6 -6 -6 -6 -6 -7 -8 -7 -7 -6 -8 -8 -8 -9 -7 -8 -8 -8 -8 -8 -8 -8 -8 -9 -9 -10 -10 -10 -10 -10 -10 -10 -10 -9 -9 -9 -9 -9 -9 -9 -9 -9
-9 -9 -8 -6 -7 -8 -7 -7 -7 -8 -8 -7 -8 -9 -9 -8 -8 -8 -8 -8 -9 -8 -8 -8 -8 -8 -8 -8 -9 -10 -10 -10 -10 -10 -10 -10 -9 -9 -9 -9 -9 -9 -9 -9
-9 -9 -8 -7 -7 -7 -10 -7 -8 -7 -8 -9 -8 -9 -10 -8 -8 -8 -8 -8 -8 -8 -9 -9 -9 -8 -8 -9 -9 -9 -10 -10 -10 -10 -10 -10 -10 -9 -9 -9 -9 -9 -10 -9
-8 -7 -9 -6 -7 -7 -7 -7 -7 -9 -9 -9 -8 -9 -9 -10 -9 -7 -8 -8 -8 -8 -9 -9 -9 -9 -8 -8 -9 -9 -9 -10 -11 -10 -10 -10 -10 -10 -10 -10 -9 -9 -9 -9
-7 -7 -9 -7 -7 -7 -8 -8 -8 -8 -8 -10 -10 -9 -10 -10 -10 -8 -8 -8 -7 -8 -9 -9 -9 -9 -9 -9 -9 -9 -10 -10 -11 -10 -10 -10 -10 -10 -10 -10 -9 -10 -9 -9
-7 -7 -7 -9 -9 -7 -7 -7 -8 -10 -9 -10 -9 -9 -11 -9 -9 -8 -7 -8 -9 -8 -8 -8 -8 -9 -9 -9 -10 -10 -10 -10 -10 -10 -10 -10 -10 -10 -10 -10 -10 -9 -9 -9
-7 -7 -7 -8 -8 -9 -6 -7 -7 -8 -8 -8 -8 -9 -11 -12 -11 -8 -8 -8 -8 -8 -9 -9 -9 -9 -9 -10 -10 -10 -10 -10 -11 -10 -9 -10 -10 -11 -10 -10 -10 -10 -9 -9
-7 -8 -8 -8 -9 -10 -9 -8 -8 -8 -8 -8 -9 -9 -10 -10 -9 -8 -9 -8 -8 -8 -9 -9 -9 -9 -10 -10 -10 -11 -11 -11 -10 -10 -10 -10 -10 -10 -10 -10 -10 -9 -9 -8
-8 -8 -8 -8 -8 -8 -9 -8 -8 -9 -9 -8 -9 -9 -9 -9 -8 -9 -9 -9 -9 -9 -9 -9 -9 -9 -10 -11 -11 -11 -11 -11 -11 -11 -11 -10 -10 -10 -10 -10 -10 -10 -9 -9
-8 -9 -9 -8 -9 -9 -8 -8 -8 -8 -9 -9 -9 -9 -12 -8 -9 -9 -9 -9 -9 -9 -9 -10 -11 -11 -11 -11 -12 -12 -11 -11 -11 -11 -11 -11 -11 -10 -9 -9 -9 -10 -10 -9
-9 -9 -9 -9 -9 -9 -8 -9 -9 -9 -9 -9 -9 -12 -10 -9 -9 -9 -9 -9 -9 -9 -10 -11 -11 -11 -11 -11 -12 -12 -11 -11 -11 -11 -11 -12 -11 -11 -9 -9 -9 -9 -9 -10
-9 -9 -9 -9 -9 -9 -10 -9 -9 -9 -10 -10 -10 -10 -9 -10 -10 -10 -10 -9 -10 -10 -11 -11 -12 -12 -12 -12 -12 -12 -12 -12 -12 -12 -12 -12 -11 -11 -10 -9 -9 -9 -10 -10
-10 -10 -10 -10 -10 -10 -11 -13 -10 -9 -10 -11 -11 -10 -11 -10 -10 -11 -10 -11 -11 -11 -11 -12 -12 -12 -12 -12 -12 -12 -12 -12 -12 -12 -12 -12 -12 -11 -10 -10 -9 -10 -10 -10
-9 -10 -10 -11 -11 -11 -13 -11 -10 -11 -11 -11 -11 -11 -11 -11 -11 -11 -11 -12 -12 -12 -12 -12 -12 -12 -12 -12 -12 -12 -12 -12 -11 -11 -11 -11 -12 -12 -11 -11 -10 -10 -10 -10
-10 -10 -11 -11 -11 -12 -13 -13 -10 -12 -13 -11 -12 -12 -12 -12 -12 -12 -12 -13 -13 -13 -13 -13 -13 -12 -13 -12 -12 -12 -12 -12 -11 -11 -10 -11 -11 -11 -11 -11 -10 -11 -10 -10
-11 -12 -13 -15 -15 -15 -14 -13 -13 -13 -12 -13 -13 -13 -12 -12 -13 -13 -13 -13 -14 -14 -13 -13 -13 -13 -13 -13 -12 -12 -12 -12 -11 -11 -11 -11 -11 -11 -11 -11 -11 -11 -10 -10
-12 -13 -13 -14 -15 -14 -13 -13 -13 -13 -13 -13 -13 -13 -13 -13 -13 -13 -14 -14 -14 -14 -13 -13 -13 -13 -13 -13 -13 -12 -12 -11 -11 -11 -11 -11 -11 -12 -12 -12 -12 -11 -10 -10
-14 -14 -13 -12 -13 -14 -15 -14 -13 -13 -13 -13 -14 -13 -14 -13 -14 -14 -14 -14 -14 -14 -13 -13 -14 -13 -13 -13 -13 -12 -12 -12 -11 -11 -11 -12 -12 -12 -12 -12 -12 -12 -12 -11
-16 -15 -14 -14 -14 -15 -15 -15 -14 -14 -14 -14 -14 -14 -14 -14 -14 -14 -14 -14 -14 -13 -14 -14 -14 -14 -14 -13 -13 -12 -12 -12 -12 -12 -12 -12 -12 -12 -12 -12 -12 -11 -11 -11
-17 -17 -15 -16 -16 -15 -14 -15 -15 -15 -15 -15 -15 -15 -15 -15 -14 -14 -14 -14 -14 -14 -14 -14 -13 -14 -13 -12 -13 -12 -12 -12 -12 -12 -12 -12 -12 -13 -12 -12 -12 -11 -11 -11

GFSCGP_500_temp_126.txt.gz
Temp
-5 -5 -6 -7 -6 -6 -6 -6 -6 -7 -5 -6 -7 -6 -6 -6 -7 -5 -6 -6 -7 -7 -7 -7 -7 -8 -8 -8 -8 -8 -9 -9 -9 -9 -8 -9 -9 -9 -9 -9 -8 -9 -9 -9
-6 -6 -7 -6 -6 -6 -6 -6 -7 -7 -5 -6 -6 -7 -6 -6 -7 -6 -6 -6 -6 -7 -6 -7 -7 -7 -8 -8 -8 -9 -9 -9 -9 -9 -9 -9 -9 -9 -9 -9 -9 -8 -9 -9
-5 -8 -6 -6 -6 -6 -6 -6 -8 -7 -7 -7 -7 -7 -7 -7 -6 -6 -5 -6 -6 -6 -7 -7 -7 -8 -8 -8 -9 -9 -9 -9 -9 -9 -9 -9 -9 -9 -9 -9 -8 -8 -8 -8
-6 -5 -6 -6 -6 -6 -8 -7 -6 -6 -6 -7 -7 -7 -7 -7 -8 -8 -6 -5 -6 -6 -7 -7 -7 -8 -8 -8 -9 -9 -9 -9 -9 -9 -9 -9 -9 -9 -9 -9 -9 -9 -9 -9
-8 -6 -6 -6 -6 -6 -6 -6 -6 -6 -6 -6 -7 -7 -7 -8 -8 -9 -9 -6 -6 -7 -7 -7 -7 -8 -8 -8 -9 -9 -9 -9 -9 -9 -9 -9 -9 -9 -9 -9 -9 -9 -10 -9
-6 -6 -6 -6 -6 -6 -6 -6 -6 -6 -7 -7 -7 -7 -8 -8 -8 -9 -9 -8 -7 -7 -6 -7 -7 -7 -8 -9 -9 -9 -9 -10 -10 -10 -8 -9 -9 -9 -9 -9 -10 -9 -8 -9
-7 -6 -6 -6 -6 -6 -6 -6 -8 -7 -7 -8 -7 -7 -7 -7 -8 -8 -8 -8 -8 -7 -6 -5 -7 -7 -7 -7 -8 -9 -10 -10 -10 -10 -10 -10 -10 -10 -9 -9 -9 -9 -9 -9
-8 -7 -8 -6 -6 -7 -8 -7 -7 -7 -7 -7 -8 -7 -8 -8 -8 -8 -8 -9 -9 -9 -6 -7 -7 -7 -7 -8 -8 -8 -9 -9 -10 -10 -11 -11 -10 -10 -10 -10 -9 -10 -9 -10
-8 -8 -8 -8 -7 -6 -8 -7 -8 -7 -7 -7 -7 -7 -8 -8 -8 -8 -8 -7 -8 -7 -7 -8 -7 -7 -7 -7 -7 -8 -8 -8 -9 -10 -10 -10 -10 -10 -10 -10 -10 -9 -10 -9
-7 -7 -9 -9 -6 -7 -7 -7 -7 -8 -9 -8 -7 -8 -8 -9 -9 -9 -8 -7 -8 -7 -7 -8 -8 -7 -7 -7 -8 -8 -8 -9 -8 -9 -9 -10 -10 -10 -10 -10 -10 -10 -10 -9
-7 -7 -7 -9 -8 -7 -9 -7 -8 -9 -9 -9 -9 -8 -9 -9 -9 -9 -9 -9 -8 -8 -8 -7 -8 -8 -8 -8 -8 -7 -7 -8 -8 -9 -9 -10 -10 -10 -10 -10 -10 -10 -10 -10
-7 -7 -7 -7 -9 -9 -8 -9 -8 -8 -8 -10 -9 -8 -10 -9 -9 -9 -9 -8 -7 -7 -8 -8 -7 -7 -7 -8 -8 -8 -8 -8 -9 -9 -9 -10 -10 -10 -9 -10 -10 -10 -10 -10
-7 -7 -7 -7 -8 -10 -10 -8 -7 -7 -7 -8 -8 -8 -10 -10 -11 -10 -8 -7 -8 -8 -8 -8 -8 -8 -8 -8 -8 -8 -9 -9 -10 -10 -10 -10 -11 -10 -9 -9 -10 -10 -10 -9
-8 -8 -7 -7 -9 -9 -9 -10 -9 -8 -8 -8 -9 -10 -11 -11 -10 -9 -8 -8 -8 -8 -8 -8 -8 -8 -8 -8 -9 -9 -10 -11 -11 -11 -11 -11 -11 -10 -10 -10 -10 -10 -10 -10
-8 -7 -8 -8 -8 -8 -8 -8 -8 -9 -9 -9 -8 -9 -8 -9 -8 -8 -8 -8 -8 -8 -8 -9 -9 -8 -9 -8 -9 -10 -10 -11 -11 -11 -11 -11 -11 -11 -10 -10 -10 -10 -10 -10
-8 -8 -8 -8 -8 -8 -8 -8 -8 -9 -9 -9 -9 -9 -11 -10 -8 -8 -8 -9 -9 -9 -9 -9 -9 -9 -9 -9 -9 -10 -11 -11 -12 -12 -11 -11 -11 -11 -11 -11 -11 -10 -10 -10
-8 -8 -8 -8 -8 -9 -8 -9 -9 -9 -9 -9 -9 -11 -11 -9 -9 -9 -9 -9 -9 -9 -9 -9 -9 -9 -9 -10 -10 -11 -12 -12 -12 -12 -12 -11 -11 -11 -11 -11 -10 -10 -9 -9
-9 -9 -9 -9 -9 -9 -9 -9 -10 -10 -9 -9 -9 -10 -11 -10 -9 -10 -10 -9 -10 -10 -10 -9 -10 -10 -10 -11 -11 -12 -12 -12 -12 -12 -11 -12 -12 -11 -11 -11 -11 -11 -10 -9
-9 -9 -9 -9 -9 -9 -9 -10 -11 -10 -10 -9 -10 -10 -10 -10 -10 -11 -10 -10 -10 -10 -10 -10 -10 -10 -11 -12 -12 -12 -12 -12 -12 -12 -12 -12 -12 -12 -11 -11 -11 -11 -10 -9
-10 -10 -9 -10 -10 -10 -11 -12 -10 -11 -11 -11 -10 -10 -11 -11 -10 -11 -10 -11 -11 -10 -10 -11 -11 -11 -12 -13 -13 -12 -12 -12 -11 -11 -12 -12 -11 -11 -11 -11 -11 -11 -10 -10
-13 -12 -11 -11 -10 -10 -12 -12 -11 -12 -11 -11 -11 -11 -11 -11 -11 -11 -12 -11 -11 -12 -12 -12 -12 -12 -13 -13 -13 -13 -12 -12 -12 -12 -12 -11 -11 -11 -11 -11 -11 -11 -10 -10
-13 -14 -13 -14 -14 -13 -13 -13 -13 -13 -12 -12 -12 -12 -12 -12 -12 -12 -12 -12 -12 -12 -12 -13 -13 -13 -13 -13 -13 -13 -13 -12 -12 -11 -13 -11 -11 -11 -11 -11 -11 -11 -10 -10
-13 -14 -13 -14 -13 -13 -13 -13 -14 -14 -12 -13 -13 -12 -13 -13 -12 -13 -13 -12 -12 -12 -13 -13 -13 -13 -13 -13 -13 -13 -13 -12 -12 -12 -12 -11 -11 -11 -11 -11 -11 -11 -11 -10
-14 -13 -13 -12 -12 -14 -14 -13 -14 -13 -13 -13 -13 -13 -13 -13 -13 -13 -13 -14 -14 -13 -13 -13 -13 -13 -13 -13 -13 -13 -13 -13 -12 -12 -11 -11 -11 -11 -11 -11 -11 -12 -11 -11
-13 -14 -13 -13 -13 -14 -14 -14 -13 -13 -14 -14 -14 -13 -13 -13 -13 -12 -14 -14 -14 -14 -13 -13 -13 -14 -13 -13 -13 -12 -13 -13 -12 -12 -12 -12 -12 -11 -11 -12 -12 -12 -12 -12
-13 -15 -14 -13 -13 -13 -12 -13 -14 -14 -15 -15 -14 -14 -15 -15 -14 -14 -14 -14 -14 -14 -14 -13 -13 -14 -14 -14 -13 -13 -14 -13 -12 -12 -12 -12 -12 -12 -12 -12 -12 -12 -12 -12

GFSCGP_500_temp_129.txt.gz
Temp
-4 -5 -6 -4 -6 -6 -7 -6 -6 -7 -6 -7 -6 -8 -6 -7 -7 -7 -7 -7 -7 -6 -7 -7 -6 -7 -7 -8 -9 -9 -9 -9 -9 -9 -9 -9 -9 -9 -9 -9 -9 -8 -8 -8
-4 -4 -5 -7 -7 -6 -6 -6 -7 -7 -7 -7 -6 -8 -7 -6 -6 -6 -7 -6 -6 -7 -7 -7 -7 -6 -7 -8 -8 -9 -9 -9 -10 -9 -9 -9 -9 -9 -9 -9 -10 -9 -9 -8
-4 -4 -5 -6 -6 -6 -6 -7 -7 -8 -6 -7 -7 -7 -7 -7 -7 -7 -6 -6 -6 -7 -8 -8 -8 -7 -7 -8 -8 -8 -9 -9 -9 -10 -9 -9 -9 -9 -9 -9 -9 -10 -10 -9
-5 -5 -6 -6 -7 -6 -6 -6 -6 -6 -6 -6 -7 -8 -7 -7 -7 -7 -5 -5 -6 -7 -7 -8 -8 -7 -7 -8 -8 -8 -9 -9 -9 -9 -10 -10 -9 -10 -9 -9 -10 -9 -9 -10
-5 -6 -6 -6 -5 -6 -5 -6 -6 -6 -6 -6 -7 -7 -8 -8 -8 -7 -6 -5 -5 -6 -7 -7 -7 -7 -7 -7 -8 -8 -9 -9 -9 -9 -10 -10 -9 -9 -9 -10 -9 -9 -9 -9
-6 -6 -7 -7 -6 -6 -6 -6 -7 -7 -7 -7 -7 -8 -8 -9 -8 -7 -7 -7 -7 -5 -5 -6 -7 -7 -7 -7 -7 -8 -9 -9 -9 -9 -10 -10 -10 -9 -10 -10 -9 -10 -9 -9
-6 -6 -7 -6 -7 -6 -6 -6 -6 -7 -8 -8 -7 -8 -8 -8 -8 -8 -8 -8 -8 -6 -6 -5 -6 -8 -7 -7 -7 -7 -7 -8 -9 -9 -10 -10 -10 -10 -10 -10 -10 -10 -10 -9
-7 -8 -8 -8 -7 -7 -7 -6 -7 -7 -8 -9 -8 -8 -8 -8 -8 -8 -8 -8 -8 -7 -7 -6 -5 -5 -6 -7 -6 -7 -7 -7 -7 -7 -8 -9 -10 -10 -10 -11 -11 -10 -10 -10
-7 -8 -8 -8 -7 -6 -7 -7 -7 -6 -7 -8 -8 -9 -8 -8 -9 -9 -9 -9 -8 -7 -7 -7 -7 -6 -6 -6 -7 -7 -7 -7 -7 -7 -7 -7 -8 -9 -10 -11 -10 -10 -10 -10
-8 -8 -7 -8 -8 -7 -8 -7 -7 -7 -7 -7 -8 -8 -9 -9 -8 -8 -7 -7 -8 -7 -7 -7 -7 -8 -7 -7 -7 -7 -7 -7 -7 -7 -7 -7 -8 -8 -9 -10 -10 -10 -10 -9
-7 -8 -7 -8 -8 -8 -7 -7 -7 -7 -8 -8 -8 -9 -9 -9 -9 -9 -9 -9 -8 -7 -7 -8 -8 -8 -7 -7 -7 -7 -7 -7 -7 -7 -8 -8 -8 -9 -9 -10 -10 -10 -10 -9
-5 -7 -7 -7 -7 -9 -9 -9 -9 -8 -8 -9 -9 -10 -9 -9 -10 -10 -10 -9 -8 -7 -7 -8 -7 -7 -8 -8 -8 -8 -8 -8 -8 -8 -8 -8 -9 -9 -9 -10 -10 -10 -10 -10
-6 -7 -7 -7 -8 -9 -10 -10 -8 -8 -9 -8 -8 -8 -10 -10 -10 -9 -9 -8 -8 -7 -7 -7 -8 -8 -8 -8 -8 -8 -8 -8 -8 -8 -8 -8 -9 -10 -10 -10 -10 -10 -10 -10
-7 -7 -8 -7 -8 -8 -9 -9 -11 -10 -8 -8 -8 -8 -9 -11 -10 -10 -10 -9 -8 -8 -8 -8 -8 -8 -9 -9 -8 -8 -8 -8 -9 -9 -9 -9 -10 -11 -11 -11 -11 -11 -10 -10
-7 -7 -7 -7 -8 -9 -8 -8 -9 -9 -10 -9 -8 -8 -9 -10 -10 -9 -8 -8 -8 -9 -9 -9 -8 -9 -9 -8 -9 -8 -8 -9 -9 -9 -10 -11 -11 -11 -11 -11 -11 -11 -11 -10
-7 -7 -7 -8 -8 -8 -8 -8 -9 -9 -9 -10 -9 -9 -9 -9 -8 -8 -8 -8 -8 -9 -9 -9 -9 -9 -9 -9 -9 -9 -9 -9 -9 -10 -11 -11 -12 -12 -12 -11 -11 -11 -11 -11
-7 -7 -8 -8 -8 -8 -8 -9 -9 -9 -9 -9 -9 -9 -10 -9 -9 -9 -9 -9 -9 -9 -9 -10 -10 -9 -10 -10 -9 -9 -9 -10 -10 -11 -12 -12 -12 -12 -12 -11 -11 -11 -11 -11
-8 -8 -8 -8 -8 -8 -8 -9 -9 -9 -9 -9 -9 -9 -10 -10 -10 -10 -10 -10 -10 -10 -10 -10 -10 -10 -10 -10 -10 -10 -10 -11 -11 -12 -12 -12 -12 -12 -12 -11 -11 -11 -11 -11
-9 -9 -9 -9 -9 -9 -9 -10 -9 -9 -10 -10 -10 -10 -10 -11 -11 -11 -10 -10 -10 -10 -10 -10 -10 -10 -11 -10 -10 -10 -11 -12 -12 -12 -12 -12 -12 -12 -12 -11 -11 -11 -11 -11
-10 -10 -10 -9 -9 -9 -10 -11 -10 -9 -10 -10 -10 -10 -11 -12 -12 -12 -11 -11 -11 -11 -10 -10 -10 -11 -11 -11 -11 -12 -12 -12 -13 -13 -12 -12 -12 -12 -11 -11 -10 -11 -11 -11
-10 -10 -10 -10 -9 -9 -10 -9 -11 -11 -10 -10 -10 -11 -11 -11 -11 -11 -12 -13 -12 -12 -11 -11 -12 -13 -12 -12 -12 -13 -13 -13 -13 -13 -13 -12 -12 -12 -11 -11 -11 -11 -11 -11
-11 -11 -11 -11 -11 -10 -11 -11 -11 -12 -11 -11 -11 -12 -12 -12 -12 -13 -12 -12 -12 -12 -12 -12 -12 -13 -13 -12 -13 -13 -13 -13 -13 -13 -13 -13 -12 -12 -11 -11 -11 -11 -11 -11
-12 -13 -13 -13 -12 -11 -12 -12 -12 -12 -12 -12 -12 -13 -13 -13 -12 -13 -13 -12 -12 -13 -13 -13 -14 -14 -13 -13 -13 -13 -13 -13 -13 -13 -12 -12 -12 -12 -11 -11 -11 -11 -11 -10
-13 -13 -13 -13 -14 -14 -14 -13 -11 -11 -12 -12 -12 -14 -14 -14 -14 -14 -14 -13 -13 -14 -14 -15 -14 -13 -13 -13 -13 -13 -13 -13 -14 -13 -13 -12 -11 -11 -11 -11 -11 -11 -11 -11
-12 -12 -13 -13 -12 -12 -14 -14 -13 -13 -13 -13 -14 -14 -15 -15 -14 -13 -14 -14 -14 -14 -16 -14 -15 -14 -13 -13 -13 -13 -13 -13 -13 -13 -13 -12 -11 -12 -11 -12 -11 -11 -11 -11
-13 -14 -13 -13 -13 -12 -12 -12 -13 -13 -13 -14 -15 -15 -14 -14 -15 -15 -15 -15 -14 -14 -14 -14 -14 -14 -13 -14 -14 -13 -13 -13 -13 -13 -13 -12 -12 -12 -12 -11 -12 -12 -12 -12

GFSCGP_500_temp_135.txt.gz
Temp
-4 -4 -5 -6 -7 -7 -7 -7 -7 -8 -8 -7 -7 -6 -6 -7 -7 -7 -8 -8 -8 -8 -8 -7 -7 -8 -8 -8 -9 -9 -9 -10 -10 -10 -10 -10 -10 -10 -10 -10 -10 -10 -10 -10
-4 -4 -5 -5 -6 -7 -7 -7 -7 -8 -8 -8 -8 -7 -6 -7 -6 -7 -8 -8 -8 -8 -7 -7 -7 -7 -7 -8 -8 -9 -9 -10 -10 -10 -10 -10 -10 -10 -9 -10 -10 -10 -9 -9
-4 -5 -5 -5 -5 -6 -6 -7 -8 -7 -8 -8 -8 -8 -7 -7 -6 -7 -7 -8 -8 -8 -8 -7 -7 -7 -7 -7 -8 -8 -9 -9 -9 -10 -10 -10 -10 -10 -10 -10 -10 -10 -10 -9
-4 -5 -5 -5 -5 -6 -6 -6 -7 -7 -7 -8 -8 -8 -8 -8 -7 -7 -7 -8 -8 -8 -8 -8 -8 -9 -8 -8 -8 -8 -9 -9 -9 -9 -9 -9 -9 -9 -9 -9 -9 -10 -10 -10
-5 -5 -5 -5 -5 -6 -6 -7 -7 -7 -7 -7 -7 -8 -8 -8 -7 -7 -7 -8 -7 -7 -8 -9 -9 -9 -9 -8 -8 -8 -8 -9 -9 -9 -9 -9 -9 -9 -9 -9 -9 -9 -9 -10
-5 -5 -4 -5 -5 -6 -7 -6 -6 -6 -6 -6 -7 -7 -7 -7 -7 -7 -7 -7 -7 -7 -8 -9 -9 -9 -9 -8 -7 -7 -7 -8 -8 -8 -8 -8 -8 -8 -8 -9 -9 -9 -9 -9
-5 -5 -5 -6 -6 -6 -7 -7 -7 -7 -7 -7 -7 -7 -6 -7 -7 -7 -8 -8 -7 -8 -8 -8 -8 -8 -8 -8 -8 -8 -7 -7 -7 -7 -7 -7 -7 -8 -8 -8 -8 -9 -9 -10
-5 -5 -5 -7 -7 -7 -7 -7 -7 -7 -8 -7 -7 -7 -7 -7 -7 -7 -8 -8 -8 -8 -8 -8 -8 -8 -8 -8 -8 -8 -9 -9 -8 -7 -7 -7 -7 -7 -7 -7 -7 -8 -8 -8
-6 -5 -6 -7 -7 -7 -7 -7 -6 -7 -7 -7 -7 -7 -7 -7 -7 -7 -8 -9 -9 -9 -8 -8 -7 -8 -8 -8 -8 -8 -7 -7 -8 -9 -8 -8 -8 -8 -8 -8 -8 -8 -8 -8
-7 -6 -6 -6 -7 -7 -7 -7 -7 -7 -7 -7 -7 -7 -7 -7 -7 -8 -9 -9 -9 -8 -8 -7 -7 -8 -8 -8 -8 -8 -8 -8 -8 -7 -7 -8 -8 -8 -8 -8 -8 -8 -9 -8
-7 -7 -7 -7 -7 -8 -8 -7 -7 -7 -7 -7 -7 -7 -7 -7 -7 -8 -8 -8 -8 -8 -7 -7 -7 -8 -8 -8 -9 -9 -8 -8 -8 -8 -8 -8 -8 -8 -8 -8 -8 -8 -8 -8
-8 -8 -8 -8 -9 -9 -8 -7 -7 -7 -7 -7 -8 -8 -8 -8 -8 -9 -8 -8 -8 -8 -8 -8 -9 -9 -9 -9 -9 -9 -9 -9 -8 -9 -9 -8 -8 -8 -8 -8 -8 -8 -8 -8
-8 -8 -8 -8 -8 -8 -9 -8 -7 -7 -7 -7 -7 -8 -9 -9 -9 -9 -9 -9 -9 -10 -10 -10 -10 -10 -11 -11 -11 -11 -10 -9 -9 -9 -9 -9 -9 -9 -9 -9 -9 -9 -9 -9
-9 -9 -8 -8 -9 -8 -9 -9 -9 -8 -8 -7 -7 -8 -9 -9 -9 -9 -9 -10 -10 -10 -11 -11 -12 -12 -12 -12 -12 -11 -10 -10 -9 -9 -9 -9 -9 -9 -9 -9 -9 -9 -9 -9
-9 -9 -9 -8 -8 -8 -9 -9 -9 -9 -8 -8 -8 -8 -9 -9 -10 -10 -10 -10 -11 -11 -11 -12 -12 -12 -12 -11 -11 -10 -10 -10 -9 -9 -9 -9 -9 -9 -9 -9 -9 -9 -9 -9
-9 -9 -9 -8 -8 -8 -9 -9 -8 -9 -8 -8 -8 -8 -8 -9 -10 -10 -11 -11 -11 -11 -11 -11 -11 -11 -11 -11 -11 -10 -10 -10 -10 -10 -10 -10 -10 -10 -10 -10 -10 -9 -9 -10
-9 -9 -9 -9 -9 -9 -9 -9 -9 -9 -8 -8 -8 -9 -9 -9 -10 -10 -10 -11 -11 -11 -11 -11 -11 -12 -12 -12 -12 -11 -11 -10 -11 -11 -10 -11 -10 -11 -11 -11 -10 -10 -11 -11
-9 -9 -9 -9 -9 -9 -9 -9 -9 -9 -8 -9 -9 -9 -9 -9 -9 -10 -10 -10 -11 -11 -12 -12 -12 -12 -12 -12 -12 -11 -11 -11 -11 -11 -11 -11 -11 -11 -11 -11 -12 -12 -12 -12
-9 -9 -9 -9 -9 -9 -8 -9 -9 -8 -8 -8 -9 -9 -10 -10 -10 -10 -11 -12 -12 -12 -11 -12 -12 -12 -12 -12 -12 -11 -11 -11 -11 -11 -11 -11 -11 -11 -11 -12 -12 -13 -13 -13
-9 -9 -9 -9 -9 -8 -8 -9 -9 -9 -8 -9 -10 -10 -10 -10 -11 -11 -11 -11 -12 -12 -13 -13 -13 -12 -13 -14 -12 -12 -11 -11 -11 -11 -12 -12 -12 -11 -12 -12 -12 -13 -13 -13
-10 -10 -9 -9 -9 -8 -8 -9 -10 -10 -10 -10 -10 -10 -10 -11 -11 -11 -12 -12 -12 -13 -13 -13 -13 -12 -13 -13 -12 -12 -13 -13 -12 -12 -12 -12 -12 -12 -12 -12 -13 -13 -13 -12
-11 -11 -10 -10 -10 -9 -9 -10 -10 -10 -10 -10 -11 -11 -11 -12 -12 -13 -13 -13 -13 -13 -13 -13 -13 -13 -13 -14 -13 -13 -14 -14 -14 -13 -13 -13 -13 -13 -13 -13 -13 -13 -12 -12
-12 -11 -11 -11 -10 -10 -10 -10 -10 -10 -11 -11 -11 -11 -11 -11 -12 -13 -13 -13 -13 -12 -12 -13 -13 -13 -14 -14 -14 -14 -15 -15 -14 -14 -14 -14 -13 -13 -13 -13 -14 -13 -12 -11
-12 -11 -11 -11 -11 -11 -11 -11 -11 -11 -11 -11 -11 -12 -12 -12 -12 -12 -12 -12 -12 -12 -13 -14 -14 -14 -14 -14 -15 -15 -15 -15 -14 -14 -14 -14 -14 -14 -13 -13 -13 -13 -11 -11
-12 -12 -12 -12 -11 -11 -11 -11 -11 -11 -12 -12 -12 -12 -13 -13 -13 -13 -13 -13 -13 -13 -14 -14 -14 -13 -14 -14 -14 -15 -15 -15 -15 -14 -14 -14 -14 -13 -13 -13 -13 -12 -12 -11
-12 -12 -12 -12 -12 -12 -12 -12 -12 -12 -12 -12 -13 -13 -13 -12 -12 -13 -13 -13 -13 -14 -14 -14 -13 -14 -14 -14 -14 -14 -14 -14 -14 -14 -14 -14 -14 -13 -13 -13 -13 -12 -12 -12